QPF
0.05 0.04 0.03 0.04 0.04 0.03 0.03 0.06 0.09 0.10 0.14 0.15 0.12 0.14 0.18 0.19 0.22 0.22 0.10 0.05 0.05 0.05 0.02 0.02 0.02 0.02 0.02 0.01 0.02 0.02 0.03 0.02 0.03 0.07 0.11 0.11 0.10 0.08 0.07 0.06 0.07 0.07 0.07
0.08 0.06 0.03 0.03 0.03 0.03 0.04 0.08 0.12 0.14 0.15 0.14 0.11 0.10 0.13 0.18 0.20 0.19 0.12 0.06 0.05 0.05 0.02 0.02 0.02 0.02 0.02 0.01 0.01 0.01 0.03 0.03 0.03 0.05 0.06 0.07 0.11 0.13 0.08 0.07 0.08 0.10 0.11
0.13 0.08 0.04 0.03 0.04 0.04 0.05 0.08 0.14 0.17 0.18 0.16 0.14 0.13 0.13 0.16 0.20 0.21 0.13 0.07 0.06 0.05 0.03 0.01 0.02 0.02 0.02 0.02 0.01 0.01 0.01 0.02 0.03 0.04 0.04 0.03 0.04 0.07 0.09 0.08 0.08 0.09 0.10
0.07 0.11 0.06 0.02 0.04 0.05 0.05 0.06 0.12 0.18 0.22 0.20 0.16 0.12 0.09 0.09 0.11 0.11 0.11 0.08 0.06 0.05 0.04 0.02 0.02 0.02 0.02 0.02 0.01 0.01 0.01 0.01 0.02 0.02 0.02 0.03 0.03 0.04 0.07 0.10 0.10 0.10 0.09
0.04 0.04 0.03 0.03 0.03 0.04 0.03 0.05 0.10 0.13 0.17 0.17 0.18 0.19 0.12 0.11 0.11 0.10 0.11 0.09 0.07 0.06 0.04 0.03 0.03 0.03 0.03 0.03 0.02 0.02 0.02 0.01 0.02 0.03 0.04 0.05 0.04 0.04 0.03 0.05 0.09 0.14 0.12
0.04 0.05 0.06 0.04 0.03 0.02 0.03 0.03 0.07 0.09 0.11 0.13 0.16 0.18 0.15 0.13 0.13 0.10 0.08 0.07 0.06 0.05 0.04 0.04 0.05 0.05 0.04 0.03 0.02 0.02 0.02 0.02 0.03 0.04 0.05 0.05 0.05 0.05 0.05 0.03 0.03 0.06 0.09
0.05 0.11 0.14 0.07 0.04 0.02 0.03 0.03 0.05 0.06 0.09 0.10 0.15 0.15 0.14 0.13 0.11 0.09 0.08 0.07 0.05 0.04 0.04 0.04 0.04 0.05 0.04 0.03 0.04 0.03 0.03 0.03 0.04 0.05 0.04 0.05 0.05 0.06 0.07 0.05 0.04 0.03 0.04
0.04 0.08 0.15 0.11 0.04 0.03 0.04 0.04 0.05 0.04 0.05 0.08 0.13 0.13 0.12 0.11 0.10 0.10 0.09 0.08 0.05 0.05 0.04 0.05 0.05 0.05 0.05 0.04 0.05 0.05 0.03 0.03 0.03 0.04 0.04 0.07 0.08 0.05 0.05 0.04 0.04 0.04 0.05
0.07 0.08 0.10 0.07 0.03 0.04 0.04 0.03 0.04 0.04 0.04 0.06 0.09 0.10 0.10 0.08 0.08 0.08 0.07 0.06 0.05 0.05 0.06 0.07 0.07 0.09 0.07 0.04 0.04 0.05 0.03 0.02 0.03 0.04 0.04 0.05 0.06 0.05 0.04 0.04 0.04 0.04 0.03
0.11 0.11 0.06 0.06 0.06 0.04 0.04 0.05 0.04 0.04 0.04 0.06 0.08 0.09 0.09 0.08 0.07 0.06 0.05 0.05 0.06 0.07 0.08 0.09 0.09 0.11 0.10 0.08 0.07 0.06 0.05 0.06 0.06 0.05 0.05 0.04 0.05 0.05 0.05 0.05 0.06 0.06 0.04
0.10 0.08 0.05 0.04 0.04 0.04 0.03 0.03 0.03 0.03 0.04 0.07 0.08 0.08 0.09 0.08 0.07 0.06 0.06 0.07 0.07 0.08 0.10 0.11 0.12 0.13 0.13 0.11 0.09 0.06 0.05 0.05 0.06 0.05 0.05 0.06 0.06 0.06 0.06 0.07 0.09 0.07 0.05
0.04 0.04 0.04 0.05 0.03 0.02 0.01 0.01 0.02 0.03 0.05 0.08 0.08 0.08 0.10 0.07 0.06 0.06 0.07 0.07 0.08 0.08 0.09 0.11 0.14 0.14 0.13 0.12 0.10 0.06 0.05 0.05 0.05 0.05 0.05 0.06 0.07 0.07 0.08 0.08 0.08 0.06 0.04
0.05 0.04 0.06 0.06 0.04 0.03 0.02 0.02 0.02 0.02 0.02 0.04 0.05 0.05 0.06 0.04 0.04 0.05 0.07 0.08 0.10 0.11 0.10 0.10 0.11 0.11 0.10 0.10 0.10 0.09 0.08 0.08 0.07 0.06 0.04 0.04 0.06 0.06 0.05 0.04 0.05 0.05 0.05
0.04 0.05 0.12 0.12 0.06 0.03 0.03 0.03 0.02 0.02 0.02 0.02 0.02 0.03 0.04 0.04 0.04 0.05 0.06 0.07 0.09 0.10 0.11 0.10 0.09 0.11 0.13 0.12 0.11 0.11 0.09 0.08 0.07 0.06 0.04 0.04 0.05 0.05 0.04 0.03 0.04 0.04 0.04
0.04 0.04 0.06 0.09 0.05 0.04 0.03 0.02 0.02 0.02 0.02 0.02 0.02 0.03 0.02 0.03 0.04 0.05 0.05 0.06 0.07 0.08 0.11 0.12 0.12 0.12 0.13 0.12 0.11 0.10 0.09 0.08 0.08 0.06 0.05 0.06 0.07 0.06 0.04 0.03 0.03 0.05 0.07
0.04 0.04 0.03 0.03 0.03 0.03 0.02 0.02 0.02 0.02 0.01 0.02 0.02 0.03 0.03 0.03 0.04 0.04 0.05 0.06 0.07 0.08 0.10 0.11 0.11 0.12 0.12 0.14 0.12 0.10 0.09 0.10 0.09 0.08 0.07 0.06 0.06 0.06 0.04 0.04 0.04 0.04 0.06
0.04 0.04 0.04 0.04 0.04 0.03 0.02 0.02 0.02 0.03 0.03 0.02 0.02 0.04 0.03 0.03 0.03 0.05 0.06 0.07 0.07 0.07 0.07 0.08 0.09 0.09 0.10 0.10 0.08 0.07 0.07 0.07 0.08 0.08 0.06 0.05 0.06 0.06 0.04 0.05 0.04 0.04 0.04
0.11 0.07 0.05 0.04 0.03 0.02 0.02 0.02 0.02 0.03 0.03 0.03 0.04 0.04 0.04 0.03 0.03 0.04 0.07 0.09 0.08 0.06 0.05 0.05 0.06 0.07 0.08 0.09 0.08 0.08 0.08 0.08 0.08 0.08 0.07 0.06 0.05 0.05 0.04 0.05 0.04 0.04 0.04
0.09 0.09 0.08 0.05 0.04 0.04 0.04 0.03 0.02 0.02 0.03 0.04 0.04 0.03 0.04 0.04 0.04 0.03 0.05 0.07 0.09 0.09 0.08 0.07 0.07 0.08 0.10 0.13 0.12 0.14 0.12 0.12 0.11 0.10 0.08 0.06 0.05 0.04 0.05 0.05 0.05 0.04 0.05
0.10 0.08 0.06 0.05 0.05 0.04 0.04 0.03 0.03 0.04 0.04 0.04 0.04 0.05 0.05 0.05 0.05 0.05 0.04 0.06 0.08 0.10 0.11 0.11 0.11 0.10 0.10 0.13 0.14 0.14 0.13 0.13 0.12 0.11 0.10 0.10 0.08 0.07 0.05 0.04 0.05 0.05 0.04
0.13 0.09 0.07 0.06 0.06 0.05 0.04 0.03 0.03 0.03 0.03 0.03 0.03 0.04 0.05 0.05 0.05 0.05 0.06 0.06 0.07 0.08 0.10 0.11 0.11 0.12 0.12 0.14 0.14 0.12 0.10 0.10 0.10 0.08 0.08 0.08 0.08 0.06 0.05 0.04 0.03 0.04 0.03
0.08 0.11 0.11 0.09 0.06 0.04 0.03 0.03 0.02 0.03 0.03 0.04 0.04 0.05 0.06 0.07 0.07 0.06 0.05 0.04 0.04 0.05 0.08 0.09 0.11 0.15 0.14 0.12 0.11 0.10 0.08 0.05 0.05 0.06 0.05 0.05 0.05 0.04 0.03 0.03 0.02 0.02 0.02
0.07 0.08 0.10 0.09 0.06 0.04 0.03 0.03 0.02 0.02 0.02 0.03 0.04 0.05 0.07 0.07 0.08 0.08 0.07 0.06 0.05 0.06 0.07 0.10 0.12 0.15 0.15 0.15 0.15 0.11 0.09 0.07 0.05 0.04 0.04 0.03 0.03 0.02 0.02 0.02 0.03 0.03 0.03
0.10 0.09 0.09 0.07 0.05 0.04 0.04 0.04 0.03 0.01 0.01 0.02 0.03 0.04 0.05 0.04 0.05 0.05 0.05 0.05 0.05 0.06 0.07 0.09 0.11 0.14 0.14 0.15 0.15 0.12 0.08 0.06 0.04 0.03 0.03 0.03 0.02 0.02 0.03 0.04 0.04 0.04 0.05
0.08 0.08 0.07 0.06 0.05 0.05 0.04 0.04 0.03 0.02 0.02 0.02 0.02 0.02 0.03 0.03 0.04 0.03 0.03 0.04 0.04 0.06 0.07 0.08 0.10 0.10 0.11 0.13 0.13 0.08 0.05 0.04 0.03 0.02 0.02 0.02 0.02 0.02 0.03 0.03 0.03 0.04 0.05
0.09 0.06 0.05 0.05 0.06 0.06 0.05 0.04 0.04 0.03 0.02 0.02 0.02 0.03 0.03 0.04 0.04 0.03 0.03 0.04 0.04 0.05 0.05 0.06 0.06 0.06 0.07 0.08 0.07 0.05 0.04 0.03 0.02 0.02 0.01 0.02 0.03 0.02 0.02 0.02 0.02 0.02 0.02
MSLP
1010.42 1010.76 1011.04 1011.27 1011.46 1011.63 1011.84 1012.10 1012.46 1012.90 1013.41 1013.96 1014.51 1015.00 1015.40 1015.71 1015.92 1016.06 1016.17 1016.30 1016.47 1016.71 1017.04 1017.43 1017.86 1018.30 1018.72 1019.10 1019.43 1019.72 1019.99 1020.23 1020.48 1020.72 1020.95 1021.16 1021.31 1021.41 1021.42 1021.37 1021.26 1021.15 1021.06
1010.58 1010.99 1011.33 1011.56 1011.71 1011.83 1011.95 1012.15 1012.47 1012.91 1013.46 1014.07 1014.68 1015.23 1015.66 1015.95 1016.11 1016.18 1016.19 1016.22 1016.31 1016.50 1016.79 1017.19 1017.64 1018.11 1018.57 1018.98 1019.33 1019.63 1019.89 1020.15 1020.40 1020.67 1020.93 1021.17 1021.37 1021.49 1021.51 1021.45 1021.32 1021.16 1021.00
1010.66 1011.15 1011.54 1011.80 1011.94 1012.01 1012.08 1012.23 1012.50 1012.93 1013.50 1014.15 1014.81 1015.41 1015.87 1016.17 1016.30 1016.31 1016.25 1016.20 1016.22 1016.35 1016.61 1016.99 1017.44 1017.92 1018.38 1018.79 1019.14 1019.43 1019.69 1019.94 1020.21 1020.49 1020.80 1021.09 1021.33 1021.50 1021.56 1021.52 1021.38 1021.18 1020.97
1010.61 1011.18 1011.64 1011.95 1012.10 1012.15 1012.18 1012.27 1012.51 1012.91 1013.48 1014.14 1014.84 1015.47 1015.97 1016.28 1016.41 1016.40 1016.31 1016.21 1016.18 1016.27 1016.49 1016.83 1017.26 1017.72 1018.17 1018.56 1018.89 1019.16 1019.41 1019.65 1019.92 1020.23 1020.57 1020.90 1021.20 1021.42 1021.53 1021.52 1021.40 1021.20 1020.96
1010.45 1011.10 1011.63 1012.00 1012.18 1012.23 1012.24 1012.29 1012.48 1012.84 1013.37 1014.03 1014.73 1015.38 1015.90 1016.24 1016.40 1016.39 1016.30 1016.19 1016.14 1016.20 1016.39 1016.71 1017.10 1017.53 1017.95 1018.31 1018.61 1018.86 1019.08 1019.32 1019.59 1019.91 1020.27 1020.64 1020.98 1021.25 1021.41 1021.45 1021.36 1021.19 1020.96
1010.24 1010.95 1011.55 1011.98 1012.21 1012.28 1012.28 1012.29 1012.42 1012.72 1013.20 1013.82 1014.49 1015.14 1015.67 1016.04 1016.23 1016.26 1016.20 1016.11 1016.07 1016.12 1016.30 1016.59 1016.95 1017.35 1017.73 1018.06 1018.33 1018.55 1018.76 1018.98 1019.24 1019.56 1019.92 1020.31 1020.68 1020.98 1021.19 1021.27 1021.25 1021.12 1020.94
1010.02 1010.79 1011.46 1011.96 1012.24 1012.33 1012.32 1012.30 1012.38 1012.60 1013.00 1013.55 1014.17 1014.78 1015.31 1015.70 1015.92 1016.00 1015.99 1015.94 1015.93 1016.00 1016.17 1016.45 1016.79 1017.15 1017.50 1017.81 1018.06 1018.27 1018.46 1018.66 1018.91 1019.22 1019.57 1019.95 1020.32 1020.64 1020.87 1021.01 1021.05 1021.00 1020.90
1009.89 1010.68 1011.41 1011.96 1012.28 1012.41 1012.40 1012.35 1012.36 1012.51 1012.82 1013.27 1013.82 1014.38 1014.88 1015.27 1015.53 1015.65 1015.69 1015.69 1015.72 1015.81 1015.99 1016.26 1016.59 1016.93 1017.26 1017.55 1017.79 1018.00 1018.19 1018.38 1018.62 1018.90 1019.23 1019.58 1019.93 1020.25 1020.51 1020.69 1020.79 1020.84 1020.84
1009.86 1010.67 1011.42 1012.00 1012.36 1012.51 1012.50 1012.43 1012.40 1012.47 1012.69 1013.05 1013.50 1013.99 1014.45 1014.83 1015.09 1015.24 1015.33 1015.38 1015.44 1015.56 1015.75 1016.01 1016.33 1016.66 1016.99 1017.28 1017.53 1017.74 1017.94 1018.14 1018.37 1018.63 1018.92 1019.24 1019.56 1019.86 1020.12 1020.34 1020.52 1020.66 1020.78
1009.95 1010.74 1011.48 1012.07 1012.44 1012.60 1012.60 1012.53 1012.46 1012.48 1012.62 1012.89 1013.26 1013.67 1014.07 1014.41 1014.67 1014.84 1014.94 1015.02 1015.11 1015.25 1015.44 1015.70 1016.01 1016.34 1016.67 1016.97 1017.24 1017.49 1017.71 1017.93 1018.16 1018.41 1018.68 1018.97 1019.25 1019.53 1019.79 1020.04 1020.27 1020.51 1020.75
1010.13 1010.86 1011.56 1012.11 1012.47 1012.64 1012.65 1012.58 1012.51 1012.51 1012.60 1012.81 1013.10 1013.44 1013.78 1014.07 1014.30 1014.46 1014.57 1014.66 1014.76 1014.89 1015.08 1015.34 1015.63 1015.96 1016.30 1016.63 1016.94 1017.23 1017.50 1017.76 1018.01 1018.27 1018.53 1018.79 1019.05 1019.31 1019.56 1019.83 1020.12 1020.44 1020.79
1010.32 1010.96 1011.57 1012.07 1012.39 1012.55 1012.58 1012.54 1012.50 1012.50 1012.59 1012.76 1013.01 1013.29 1013.57 1013.82 1014.01 1014.15 1014.24 1014.32 1014.41 1014.53 1014.71 1014.95 1015.24 1015.57 1015.92 1016.27 1016.63 1016.97 1017.30 1017.62 1017.92 1018.20 1018.47 1018.73 1018.98 1019.23 1019.49 1019.77 1020.10 1020.48 1020.91
1010.47 1010.99 1011.49 1011.89 1012.16 1012.31 1012.36 1012.37 1012.37 1012.42 1012.53 1012.71 1012.93 1013.18 1013.42 1013.62 1013.78 1013.89 1013.96 1014.02 1014.10 1014.21 1014.37 1014.59 1014.87 1015.20 1015.56 1015.95 1016.35 1016.75 1017.15 1017.53 1017.89 1018.22 1018.52 1018.80 1019.06 1019.31 1019.58 1019.88 1020.23 1020.65 1021.13
1010.52 1010.91 1011.27 1011.57 1011.78 1011.91 1011.99 1012.06 1012.13 1012.25 1012.41 1012.62 1012.85 1013.09 1013.30 1013.47 1013.60 1013.68 1013.74 1013.79 1013.85 1013.95 1014.11 1014.32 1014.59 1014.92 1015.29 1015.70 1016.14 1016.60 1017.06 1017.51 1017.93 1018.33 1018.68 1019.00 1019.28 1019.56 1019.84 1020.15 1020.52 1020.95 1021.46
1010.48 1010.73 1010.96 1011.15 1011.30 1011.42 1011.53 1011.65 1011.81 1012.00 1012.23 1012.49 1012.75 1012.99 1013.19 1013.35 1013.46 1013.53 1013.58 1013.63 1013.70 1013.81 1013.96 1014.17 1014.45 1014.78 1015.16 1015.59 1016.06 1016.56 1017.07 1017.58 1018.07 1018.52 1018.93 1019.30 1019.63 1019.93 1020.23 1020.56 1020.93 1021.37 1021.87
1010.37 1010.49 1010.60 1010.70 1010.79 1010.90 1011.05 1011.23 1011.47 1011.74 1012.04 1012.34 1012.63 1012.88 1013.09 1013.24 1013.35 1013.43 1013.50 1013.57 1013.66 1013.79 1013.97 1014.20 1014.48 1014.82 1015.21 1015.65 1016.14 1016.66 1017.20 1017.75 1018.29 1018.80 1019.26 1019.68 1020.06 1020.40 1020.73 1021.06 1021.43 1021.86 1022.33
1010.24 1010.27 1010.30 1010.32 1010.38 1010.49 1010.66 1010.90 1011.19 1011.53 1011.87 1012.22 1012.52 1012.79 1013.00 1013.16 1013.28 1013.39 1013.49 1013.61 1013.75 1013.93 1014.15 1014.41 1014.72 1015.07 1015.46 1015.90 1016.39 1016.91 1017.46 1018.03 1018.59 1019.14 1019.65 1020.11 1020.53 1020.91 1021.26 1021.61 1021.98 1022.38 1022.82
1010.16 1010.15 1010.13 1010.12 1010.17 1010.28 1010.47 1010.75 1011.08 1011.44 1011.81 1012.16 1012.47 1012.73 1012.94 1013.12 1013.27 1013.41 1013.56 1013.75 1013.96 1014.20 1014.49 1014.80 1015.14 1015.51 1015.90 1016.34 1016.80 1017.31 1017.85 1018.41 1018.98 1019.54 1020.07 1020.56 1021.01 1021.42 1021.80 1022.16 1022.52 1022.90 1023.31
1010.20 1010.19 1010.16 1010.16 1010.21 1010.33 1010.54 1010.83 1011.16 1011.52 1011.88 1012.21 1012.50 1012.75 1012.95 1013.13 1013.31 1013.50 1013.72 1013.98 1014.27 1014.60 1014.95 1015.32 1015.70 1016.09 1016.49 1016.91 1017.35 1017.83 1018.33 1018.87 1019.42 1019.97 1020.51 1021.01 1021.48 1021.91 1022.31 1022.68 1023.04 1023.40 1023.77
1010.37 1010.40 1010.40 1010.43 1010.51 1010.65 1010.86 1011.13 1011.45 1011.77 1012.09 1012.37 1012.62 1012.84 1013.03 1013.22 1013.42 1013.66 1013.95 1014.28 1014.66 1015.07 1015.49 1015.92 1016.34 1016.75 1017.15 1017.56 1017.97 1018.41 1018.88 1019.38 1019.89 1020.42 1020.94 1021.45 1021.92 1022.36 1022.77 1023.15 1023.51 1023.87 1024.22
1010.67 1010.76 1010.83 1010.90 1011.01 1011.17 1011.37 1011.62 1011.89 1012.15 1012.40 1012.63 1012.82 1012.99 1013.17 1013.36 1013.59 1013.88 1014.23 1014.64 1015.09 1015.58 1016.07 1016.55 1017.00 1017.43 1017.84 1018.23 1018.62 1019.03 1019.45 1019.91 1020.39 1020.88 1021.38 1021.87 1022.34 1022.78 1023.19 1023.58 1023.95 1024.30 1024.64
1011.07 1011.24 1011.37 1011.50 1011.64 1011.80 1011.99 1012.19 1012.40 1012.59 1012.77 1012.92 1013.06 1013.19 1013.35 1013.55 1013.81 1014.14 1014.55 1015.02 1015.53 1016.08 1016.62 1017.14 1017.63 1018.08 1018.49 1018.87 1019.25 1019.63 1020.02 1020.44 1020.88 1021.34 1021.81 1022.27 1022.73 1023.17 1023.58 1023.97 1024.34 1024.70 1025.03
1011.52 1011.75 1011.95 1012.12 1012.28 1012.44 1012.60 1012.75 1012.89 1013.01 1013.11 1013.20 1013.29 1013.40 1013.55 1013.76 1014.05 1014.43 1014.88 1015.39 1015.96 1016.54 1017.12 1017.67 1018.18 1018.65 1019.07 1019.46 1019.83 1020.19 1020.57 1020.96 1021.37 1021.79 1022.23 1022.67 1023.11 1023.53 1023.93 1024.32 1024.70 1025.06 1025.41
1011.98 1012.26 1012.49 1012.69 1012.86 1013.01 1013.13 1013.23 1013.30 1013.35 1013.39 1013.43 1013.49 1013.59 1013.75 1013.98 1014.30 1014.71 1015.20 1015.76 1016.35 1016.96 1017.56 1018.13 1018.65 1019.13 1019.56 1019.96 1020.33 1020.70 1021.07 1021.44 1021.83 1022.23 1022.64 1023.05 1023.46 1023.86 1024.25 1024.64 1025.01 1025.38 1025.74
1012.41 1012.71 1012.96 1013.17 1013.33 1013.45 1013.53 1013.58 1013.59 1013.59 1013.59 1013.60 1013.65 1013.75 1013.93 1014.19 1014.55 1015.00 1015.52 1016.11 1016.72 1017.34 1017.94 1018.52 1019.05 1019.53 1019.98 1020.39 1020.77 1021.15 1021.52 1021.89 1022.26 1022.64 1023.02 1023.40 1023.78 1024.15 1024.52 1024.90 1025.27 1025.64 1026.01
1012.81 1013.10 1013.35 1013.54 1013.68 1013.77 1013.81 1013.81 1013.78 1013.74 1013.71 1013.71 1013.76 1013.89 1014.10 1014.41 1014.81 1015.29 1015.84 1016.44 1017.06 1017.68 1018.28 1018.85 1019.39 1019.88 1020.33 1020.75 1021.15 1021.54 1021.91 1022.28 1022.64 1023.00 1023.35 1023.70 1024.04 1024.38 1024.73 1025.08 1025.45 1025.82 1026.20
Thickness
5801 5799 5795 5791 5786 5781 5776 5772 5766 5762 5759 5755 5751 5748 5747 5748 5749 5750 5751 5752 5751 5752 5751 5750 5749 5748 5746 5745 5744 5742 5740 5738 5738 5734 5731 5732 5734 5734 5734 5733 5732 5730 5729
5797 5795 5792 5788 5784 5779 5775 5771 5766 5763 5760 5757 5754 5751 5748 5747 5748 5748 5750 5750 5751 5751 5751 5749 5748 5748 5746 5744 5743 5742 5738 5737 5737 5732 5725 5721 5724 5730 5735 5733 5732 5731 5730
5797 5794 5790 5786 5782 5778 5775 5772 5767 5763 5760 5757 5753 5750 5747 5745 5744 5745 5747 5749 5749 5750 5750 5749 5748 5747 5746 5743 5743 5741 5738 5734 5735 5735 5728 5719 5716 5722 5729 5732 5732 5731 5730
5798 5792 5788 5784 5781 5779 5777 5773 5768 5763 5760 5756 5752 5748 5744 5742 5743 5745 5746 5747 5748 5748 5748 5748 5747 5746 5745 5743 5742 5741 5739 5736 5731 5732 5733 5731 5728 5721 5719 5725 5729 5730 5729
5798 5792 5789 5786 5783 5780 5776 5772 5767 5763 5760 5757 5754 5749 5746 5745 5745 5745 5744 5745 5746 5747 5747 5747 5747 5745 5744 5743 5742 5741 5739 5737 5733 5731 5731 5730 5728 5727 5721 5717 5721 5725 5727
5797 5792 5789 5786 5782 5780 5775 5771 5767 5763 5760 5757 5753 5750 5746 5745 5743 5743 5742 5742 5743 5744 5746 5746 5745 5744 5743 5742 5741 5740 5739 5737 5735 5733 5732 5729 5727 5724 5722 5718 5718 5718 5722
5796 5791 5786 5783 5779 5776 5773 5769 5766 5762 5759 5756 5753 5751 5748 5746 5745 5743 5742 5741 5741 5742 5744 5745 5744 5743 5742 5741 5740 5739 5737 5736 5734 5732 5731 5731 5731 5730 5726 5721 5717 5716 5717
5793 5790 5787 5783 5780 5776 5772 5769 5765 5762 5759 5756 5753 5751 5749 5747 5746 5745 5744 5743 5743 5744 5744 5744 5743 5742 5741 5740 5739 5737 5736 5735 5733 5732 5731 5730 5730 5731 5729 5724 5718 5711 5709
5789 5786 5785 5782 5779 5775 5772 5769 5765 5762 5759 5756 5753 5751 5749 5748 5746 5746 5745 5744 5744 5744 5744 5743 5742 5741 5740 5739 5737 5735 5733 5732 5731 5730 5729 5728 5728 5729 5729 5727 5723 5714 5703
5786 5784 5782 5781 5778 5775 5772 5769 5766 5762 5760 5757 5754 5752 5749 5748 5747 5745 5744 5744 5744 5743 5742 5741 5740 5739 5738 5736 5734 5732 5731 5729 5727 5726 5725 5724 5725 5725 5725 5724 5722 5718 5710
5785 5783 5779 5779 5777 5773 5769 5766 5763 5760 5757 5755 5753 5751 5749 5748 5746 5745 5744 5743 5743 5742 5741 5739 5738 5736 5734 5733 5730 5728 5727 5724 5722 5722 5721 5720 5720 5719 5719 5718 5716 5713 5709
5786 5782 5778 5775 5772 5769 5766 5763 5761 5758 5756 5754 5752 5750 5748 5746 5744 5743 5742 5742 5741 5741 5739 5737 5735 5733 5731 5729 5727 5724 5722 5720 5717 5716 5715 5714 5714 5712 5712 5710 5708 5706 5703
5784 5780 5775 5772 5768 5766 5763 5761 5759 5757 5755 5753 5750 5748 5746 5744 5742 5740 5740 5740 5739 5737 5736 5734 5732 5729 5727 5725 5722 5720 5717 5715 5713 5711 5709 5708 5707 5704 5703 5702 5700 5697 5695
5780 5776 5772 5769 5766 5764 5762 5760 5757 5756 5753 5750 5747 5745 5743 5741 5739 5738 5737 5736 5735 5733 5732 5730 5728 5725 5723 5721 5718 5714 5711 5708 5705 5704 5702 5701 5700 5697 5696 5693 5691 5688 5684
5776 5774 5769 5766 5764 5761 5759 5758 5756 5754 5751 5747 5744 5742 5740 5738 5736 5734 5733 5732 5730 5729 5727 5725 5722 5720 5718 5716 5712 5708 5705 5701 5697 5695 5694 5693 5692 5691 5689 5686 5682 5679 5674
5776 5774 5769 5765 5762 5759 5757 5755 5753 5751 5748 5744 5741 5739 5736 5734 5731 5729 5727 5726 5724 5722 5721 5719 5716 5714 5712 5710 5707 5703 5698 5694 5690 5686 5683 5682 5681 5680 5678 5676 5673 5670 5665
5775 5772 5768 5764 5761 5759 5756 5752 5750 5748 5744 5740 5737 5735 5732 5728 5726 5724 5721 5719 5717 5715 5713 5711 5709 5706 5704 5702 5699 5696 5691 5686 5682 5678 5675 5673 5670 5668 5666 5663 5660 5656 5653
5772 5769 5766 5762 5759 5756 5753 5750 5747 5743 5740 5735 5732 5730 5727 5723 5720 5717 5714 5712 5710 5708 5706 5704 5701 5698 5695 5693 5690 5687 5682 5677 5673 5669 5667 5664 5660 5658 5655 5652 5647 5643 5640
5770 5766 5762 5759 5755 5751 5749 5745 5740 5737 5734 5730 5727 5724 5722 5718 5714 5710 5707 5705 5703 5701 5698 5696 5693 5689 5685 5683 5681 5678 5673 5667 5663 5659 5656 5654 5651 5648 5645 5641 5636 5631 5627
5765 5761 5757 5752 5747 5744 5742 5737 5732 5729 5727 5725 5722 5719 5716 5712 5708 5705 5702 5698 5696 5693 5690 5686 5683 5680 5676 5673 5671 5669 5664 5657 5651 5648 5645 5643 5641 5637 5634 5631 5626 5620 5614
5754 5751 5747 5741 5738 5736 5733 5728 5725 5722 5721 5719 5716 5712 5709 5705 5702 5698 5695 5691 5688 5684 5681 5677 5673 5670 5667 5664 5661 5659 5655 5649 5643 5638 5634 5631 5629 5626 5624 5620 5616 5611 5606
5744 5741 5736 5730 5728 5727 5724 5720 5717 5716 5714 5711 5707 5704 5700 5697 5694 5690 5686 5682 5679 5675 5671 5666 5661 5658 5655 5653 5651 5648 5646 5642 5636 5630 5625 5622 5619 5616 5613 5610 5606 5601 5596
5734 5730 5726 5720 5717 5716 5715 5711 5709 5708 5705 5701 5698 5694 5691 5688 5684 5681 5677 5673 5669 5666 5661 5657 5652 5647 5643 5641 5639 5637 5634 5631 5626 5620 5616 5612 5609 5605 5601 5598 5594 5590 5585
5722 5718 5715 5710 5706 5705 5704 5702 5701 5699 5696 5691 5688 5685 5682 5678 5675 5672 5668 5665 5661 5657 5653 5649 5644 5639 5634 5631 5628 5625 5622 5619 5614 5609 5604 5601 5598 5595 5590 5586 5582 5577 5573
5709 5707 5702 5699 5697 5695 5694 5692 5690 5689 5685 5682 5678 5675 5672 5669 5664 5660 5656 5654 5652 5651 5648 5643 5639 5633 5626 5622 5621 5617 5613 5608 5604 5599 5594 5589 5585 5581 5576 5573 5569 5565 5561
5697 5694 5691 5688 5686 5685 5683 5681 5680 5678 5675 5671 5669 5666 5662 5659 5654 5649 5643 5639 5639 5638 5636 5634 5630 5624 5620 5614 5610 5607 5603 5598 5594 5590 5584 5579 5574 5570 5566 5562 5558 5554 5549